GW3762 Weather Reports


Display with metric or nautical units.
time (UTC)temp
F
wind
direction
speed
MPH
gust
MPH
rain 1hr
in
rain 24hr
in
rain mn
in
humidity
%
barometer
mb
20260508135458 55 284 3.0 6.0 0.00 0.00 0.00 57 1011.8
20260508134958 55 246 2.0 6.0 0.00 0.00 0.00 59 1011.7
20260508134457 55 247 3.0 6.0 0.00 0.00 0.00 59 1011.8
20260508133957 55 248 2.0 5.0 0.00 0.00 0.00 63 1011.8
20260508133001 54 296 3.0 4.0 0.00 0.00 0.00 58 1012.0
20260508132458 54 288 2.0 4.0 0.00 0.00 0.00 62 1012.1
20260508131459 53 266 2.0 4.0 0.00 0.00 0.00 61 1012.2
20260508130958 53 283 2.0 5.0 0.00 0.00 0.00 62 1012.2
20260508130458 52 256 2.0 5.0 0.00 0.00 0.00 68 1012.2
20260508125959 51 259 3.0 4.0 0.00 0.00 0.00 67 1012.2
20260508125458 50 277 3.0 5.0 0.00 0.00 0.00 68 1012.2
20260508125001 50 269 2.0 5.0 0.00 0.00 0.00 69 1012.2
20260508124458 49 250 2.0 4.0 0.00 0.00 0.00 72 1012.1
20260508123958 49 262 2.0 3.0 0.00 0.00 0.00 72 1012.2
20260508123458 49 267 2.0 3.0 0.00 0.00 0.00 71 1012.2
20260508122958 48 256 2.0 3.0 0.00 0.00 0.00 73 1012.1
20260508122457 48 270 2.0 4.0 0.00 0.00 0.00 74 1012.1
20260508121958 47 264 2.0 4.0 0.00 0.00 0.00 75 1012.1
20260508121458 47 260 2.0 4.0 0.00 0.00 0.00 74 1012.1
20260508120957 47 266 0.0 6.0 0.00 0.00 0.00 75 1012.1
20260508120458 47 273 3.0 4.0 0.00 0.00 0.00 77 1012.0
20260508115959 47 263 1.0 6.0 0.00 0.00 0.00 77 1012.0
20260508115457 46 252 3.0 5.0 0.00 0.00 0.00 78 1012.0
20260508114958 46 266 2.0 4.0 0.00 0.00 0.00 78 1011.9
20260508114458 46 263 2.0 4.0 0.00 0.00 0.00 78 1011.9
20260508113957 46 265 2.0 5.0 0.00 0.00 0.00 79 1011.8
20260508113457 45 253 2.0 5.0 0.00 0.00 0.00 80 1011.9
20260508112957 45 250 4.0 6.0 0.00 0.00 0.00 80 1011.8
20260508112457 45 257 2.0 6.0 0.00 0.00 0.00 80 1011.7
20260508111958 45 256 3.0 4.0 0.00 0.00 0.00 80 1011.8
20260508111458 45 259 4.0 6.0 0.00 0.00 0.00 81 1011.8
20260508110958 44 259 2.0 6.0 0.00 0.00 0.00 81 1011.7
20260508110457 44 256 3.0 4.0 0.00 0.00 0.00 80 1011.7
20260508105956 44 258 3.0 6.0 0.00 0.00 0.00 81 1011.8
20260508105456 44 257 4.0 6.0 0.00 0.00 0.00 81 1011.8
20260508104457 44 257 3.0 4.0 0.00 0.00 0.00 81 1011.7
20260508103956 44 257 3.0 4.0 0.00 0.00 0.00 81 1011.6
20260508103456 43 257 2.0 4.0 0.00 0.00 0.00 82 1011.5
20260508102957 43 257 2.0 4.0 0.00 0.00 0.00 81 1011.5
20260508102456 43 257 3.0 4.0 0.00 0.00 0.00 81 1011.5
20260508101956 43 257 3.0 4.0 0.00 0.00 0.00 80 1011.5
20260508101459 43 257 2.0 3.0 0.00 0.00 0.00 80 1011.3
20260508100956 43 257 2.0 3.0 0.00 0.00 0.00 80 1011.2
20260508100456 43 257 1.0 3.0 0.00 0.00 0.00 79 1011.2
20260508095959 44 257 2.0 3.0 0.00 0.00 0.00 78 1011.1
20260508095457 44 257 2.0 3.0 0.00 0.04 0.00 78 1011.0
20260508094457 44 257 2.0 3.0 0.00 0.04 0.00 77 1010.7
20260508093458 44 257 1.0 4.0 0.00 0.04 0.00 77 1010.8
20260508092957 44 257 2.0 4.0 0.00 0.04 0.00 76 1010.9
20260508092458 44 257 3.0 3.0 0.00 0.04 0.00 76 1010.8
20260508091957 44 257 1.0 4.0 0.00 0.04 0.00 75 1010.9
20260508091458 44 257 3.0 4.0 0.00 0.04 0.00 74 1010.9
20260508090957 44 257 3.0 4.0 0.00 0.04 0.00 74 1010.9
20260508090457 44 257 3.0 4.0 0.00 0.04 0.00 74 1010.9
20260508085958 44 257 2.0 4.0 0.00 0.07 0.00 73 1011.0
20260508085457 44 257 2.0 4.0 0.00 0.07 0.00 73 1010.9
20260508084959 44 257 3.0 4.0 0.00 0.07 0.00 73 1010.9
20260508084458 44 256 2.0 4.0 0.00 0.07 0.00 73 1010.8
20260508083958 44 256 1.0 4.0 0.00 0.07 0.00 73 1010.8
20260508083458 44 256 2.0 5.0 0.00 0.07 0.00 72 1010.9
20260508082958 44 255 5.0 6.0 0.00 0.07 0.00 72 1010.9
20260508082457 45 260 3.0 6.0 0.00 0.07 0.00 72 1010.9
20260508081958 45 265 3.0 4.0 0.00 0.07 0.00 71 1010.9
20260508081457 45 265 2.0 4.0 0.00 0.07 0.00 72 1010.9
20260508080458 45 267 1.0 3.0 0.00 0.07 0.00 72 1010.8
20260508075958 45 273 2.0 3.0 0.00 0.12 0.00 71 1010.7
20260508075456 45 275 2.0 3.0 0.00 0.12 0.00 71 1010.8
20260508074956 45 279 2.0 3.0 0.00 0.12 0.00 70 1010.7
20260508073957 45 268 1.0 3.0 0.00 0.12 0.00 72 1010.6
20260508073457 45 268 2.0 3.0 0.00 0.12 0.00 72 1010.7
20260508072956 45 268 3.0 3.0 0.00 0.12 0.00 72 1010.7
20260508072456 45 268 2.0 3.0 0.00 0.12 0.00 71 1010.6
20260508065957 43 273 3.0 7.0 0.00 0.20 0.00 72 1010.9
20260508065457 43 265 4.0 7.0 0.00 0.20 0.00 73 1010.6
20260508064957 43 266 3.0 4.0 0.00 0.20 0.00 73 1010.6
20260508064457 43 262 1.0 6.0 0.00 0.20 0.00 75 1010.3
20260508063957 43 278 1.0 3.0 0.00 0.20 0.00 76 1010.2
20260508063458 43 263 2.0 3.0 0.00 0.20 0.00 76 1010.1
20260508062957 43 257 2.0 3.0 0.00 0.20 0.00 73 1009.8
20260508061957 43 265 2.0 3.0 0.00 0.20 0.00 75 1009.8
20260508061457 43 277 1.0 3.0 0.00 0.20 0.00 77 1009.9
20260508060458 43 290 2.0 4.0 0.00 0.20 0.00 75 1009.7
20260508055957 43 268 1.0 3.0 0.00 0.20 0.00 73 1009.6
20260508055458 44 265 1.0 5.0 0.00 0.20 0.00 73 1009.5
20260508054957 44 34 1.0 5.0 0.00 0.20 0.00 67 1009.4
20260508054457 45 305 1.0 4.0 0.00 0.20 0.00 69 1009.4
20260508053957 45 306 1.0 4.0 0.00 0.20 0.00 63 1009.3
20260508052958 45 345 0.0 2.0 0.00 0.20 0.00 63 1009.4
20260508052458 46 290 0.0 3.0 0.00 0.20 0.00 68 1009.4
20260508051457 47 339 1.0 8.0 0.00 0.20 0.00 54 1009.4
20260508050957 47 348 0.0 8.0 0.00 0.20 0.00 52 1009.3
20260508050458 47 69 2.0 5.0 0.00 0.20 0.00 53 1009.3
20260508045458 47 119 1.0 4.0 0.00 0.20 0.00 53 1009.4
20260508044958 47 41 1.0 4.0 0.00 0.20 0.00 52 1009.4
20260508044458 47 52 0.0 4.0 0.00 0.20 0.00 53 1009.3
20260508043958 47 51 1.0 4.0 0.00 0.20 0.00 52 1009.4
20260508043459 47 86 0.0 4.0 0.00 0.20 0.00 53 1009.4
20260508042958 47 18 1.0 5.0 0.00 0.20 0.00 52 1009.5
20260508042458 48 360 1.0 5.0 0.00 0.20 0.00 53 1009.5
20260508041958 48 46 5.0 5.0 0.00 0.20 0.00 54 1009.6
20260508041458 48 57 1.0 6.0 0.00 0.20 0.00 52 1009.6
20260508040959 48 87 1.0 6.0 0.00 0.20 0.00 52 1009.6
20260508035959 48 49 2.0 6.0 0.00 0.20 0.20 53 1009.7
20260508035500 47 62 2.0 5.0 0.00 0.20 0.20 54 1009.7
20260508034459 47 40 2.0 5.0 0.00 0.20 0.20 55 1009.8
20260508034000 47 82 1.0 5.0 0.00 0.20 0.20 55 1009.8
20260508033459 47 55 2.0 5.0 0.00 0.20 0.20 56 1009.9
20260508032959 48 55 2.0 4.0 0.00 0.20 0.20 56 1009.8
20260508032000 48 69 2.0 4.0 0.00 0.20 0.20 56 1010.0
20260508031459 48 42 2.0 8.0 0.00 0.20 0.20 56 1010.0
20260508030459 49 74 3.0 6.0 0.00 0.20 0.20 55 1009.9
20260508030001 49 60 4.0 6.0 0.00 0.20 0.20 55 1009.9
20260508025501 49 30 2.0 6.0 0.00 0.20 0.20 54 1009.8
20260508024959 49 80 2.0 5.0 0.00 0.20 0.20 54 1009.8
20260508024459 49 39 1.0 5.0 0.00 0.20 0.20 54 1009.8
20260508023959 49 22 1.0 5.0 0.00 0.20 0.20 54 1009.8
20260508023459 49 19 4.0 6.0 0.00 0.20 0.20 54 1009.8
20260508022959 49 40 1.0 6.0 0.00 0.20 0.20 54 1009.7
20260508021959 49 58 3.0 7.0 0.00 0.20 0.20 54 1009.7
20260508021500 50 65 3.0 6.0 0.00 0.20 0.20 54 1009.8
20260508021000 50 44 2.0 7.0 0.00 0.20 0.20 54 1009.8
20260508020459 50 71 3.0 5.0 0.00 0.20 0.20 54 1009.8
20260508020001 50 58 2.0 4.0 0.00 0.20 0.20 54 1009.8
20260508015500 50 72 2.0 4.0 0.00 0.20 0.20 55 1009.7
20260508014959 50 55 3.0 4.0 0.00 0.20 0.20 55 1009.7
20260508014459 50 48 2.0 4.0 0.00 0.20 0.20 54 1009.7
20260508014000 50 86 3.0 4.0 0.00 0.20 0.20 54 1009.6
20260508012959 50 58 2.0 4.0 0.00 0.20 0.20 54 1009.6
20260508012500 51 75 4.0 5.0 0.00 0.20 0.20 53 1009.5
20260508012000 51 59 1.0 5.0 0.00 0.20 0.20 53 1009.5
20260508011500 51 79 3.0 4.0 0.00 0.20 0.20 52 1009.4
20260508010459 51 66 1.0 2.0 0.00 0.20 0.20 52 1009.4
20260508010001 51 67 0.0 4.0 0.00 0.20 0.20 52 1009.2
20260508005459 51 51 1.0 4.0 0.00 0.20 0.20 52 1009.1
20260508005000 51 69 2.0 3.0 0.00 0.20 0.20 53 1009.1
20260508003459 51 73 0.0 1.0 0.00 0.20 0.20 53 1008.9
20260508002959 51 73 0.0 2.0 0.00 0.20 0.20 53 1008.8
20260508002459 51 73 0.0 2.0 0.00 0.20 0.20 52 1008.7
20260508001958 51 73 0.0 3.0 0.00 0.20 0.20 53 1008.8
20260508000959 52 327 1.0 2.0 0.00 0.20 0.20 52 1008.7
20260508000459 52 314 0.0 2.0 0.00 0.20 0.20 53 1008.6
20260507235958 52 67 1.0 2.0 0.00 0.20 0.20 52 1008.6
20260507235458 52 53 0.0 2.0 0.00 0.20 0.20 53 1008.6
20260507233958 54 296 0.0 3.0 0.00 0.20 0.20 51 1008.3
20260507233458 54 57 1.0 5.0 0.00 0.20 0.20 48 1008.3
20260507232958 54 131 3.0 4.0 0.00 0.20 0.20 48 1008.2
20260507232458 54 68 1.0 5.0 0.00 0.20 0.20 49 1008.3
20260507231958 54 78 5.0 5.0 0.00 0.20 0.20 49 1008.1
20260507231459 55 67 3.0 4.0 0.00 0.20 0.20 49 1008.1
20260507230958 55 81 2.0 3.0 0.00 0.20 0.20 48 1008.1
20260507230458 55 294 1.0 4.0 0.00 0.20 0.20 49 1008.1
20260507225959 55 80 2.0 7.0 0.00 0.20 0.20 48 1008.1
20260507225459 55 31 2.0 9.0 0.00 0.20 0.20 47 1008.1
20260507224958 55 69 3.0 9.0 0.00 0.20 0.20 51 1008.1
20260507224458 56 88 0.0 5.0 0.00 0.20 0.20 47 1008.0
20260507223958 56 37 1.0 6.0 0.00 0.20 0.20 46 1007.9
20260507223458 56 61 0.0 8.0 0.00 0.20 0.20 45 1007.9
20260507222458 56 254 4.0 9.0 0.00 0.20 0.20 48 1008.0
20260507220958 56 103 2.0 6.0 0.00 0.20 0.20 47 1007.9
20260507215959 57 283 1.0 8.0 0.00 0.20 0.20 46 1007.8
20260507215458 57 62 1.0 10.0 0.00 0.20 0.20 46 1007.7
20260507214958 57 53 6.0 6.0 0.00 0.20 0.20 46 1007.7
20260507214459 57 273 1.0 6.0 0.00 0.20 0.20 46 1007.7
20260507213958 57 261 1.0 6.0 0.00 0.20 0.20 46 1007.7
20260507213458 57 49 0.0 10.0 0.00 0.20 0.20 46 1007.6
20260507212958 57 286 2.0 10.0 0.00 0.20 0.20 45 1007.6
20260507212458 57 242 5.0 8.0 0.00 0.20 0.20 46 1007.6
20260507211958 57 69 4.0 9.0 0.00 0.20 0.20 47 1007.6
20260507210959 56 65 1.0 6.0 0.00 0.20 0.20 48 1007.5
20260507210458 57 55 0.0 5.0 0.00 0.20 0.20 46 1007.6
20260507205959 57 294 1.0 4.0 0.00 0.21 0.20 46 1007.6
20260507205458 58 261 0.0 10.0 0.00 0.21 0.20 51 1007.5
20260507204959 58 276 2.0 10.0 0.00 0.21 0.20 47 1007.4
20260507204458 57 63 4.0 9.0 0.00 0.21 0.20 45 1007.4
20260507203958 57 51 1.0 5.0 0.00 0.21 0.20 48 1007.4
20260507203458 58 73 0.0 6.0 0.00 0.21 0.20 45 1007.4
20260507202958 58 178 2.0 8.0 0.00 0.21 0.20 46 1007.4
20260507201959 59 65 6.0 11.0 0.00 0.21 0.20 45 1007.4
20260507201458 60 263 3.0 11.0 0.00 0.21 0.20 43 1007.4
20260507200958 61 51 2.0 7.0 0.00 0.21 0.20 48 1007.5
20260507200458 60 259 3.0 7.0 0.00 0.21 0.20 46 1007.4
20260507195958 60 257 2.0 9.0 0.00 0.21 0.20 47 1007.5
20260507195459 60 116 2.0 9.0 0.00 0.21 0.20 46 1007.6
20260507194959 60 76 2.0 7.0 0.00 0.21 0.20 43 1007.6
20260507194500 60 100 2.0 7.0 0.00 0.21 0.20 47 1007.7
20260507194000 61 227 5.0 8.0 0.00 0.21 0.20 49 1007.6
20260507193459 61 277 4.0 9.0 0.00 0.21 0.20 51 1007.7
20260507192958 59 270 1.0 14.0 0.00 0.21 0.20 47 1007.8
20260507192500 59 82 3.0 14.0 0.00 0.21 0.20 44 1007.8
20260507192000 60 90 1.0 12.0 0.00 0.21 0.20 42 1007.8
20260507191500 61 75 2.0 7.0 0.00 0.21 0.20 44 1008.0
20260507191000 62 89 3.0 7.0 0.00 0.21 0.20 42 1007.9
20260507190500 62 283 2.0 5.0 0.00 0.21 0.20 44 1008.0
20260507184958 61 238 3.0 9.0 0.00 0.22 0.20 42 1008.2
20260507184458 61 291 3.0 7.0 0.00 0.22 0.20 48 1008.2
20260507183958 61 93 2.0 8.0 0.00 0.22 0.20 46 1008.3
20260507183458 61 258 3.0 8.0 0.00 0.22 0.20 50 1008.4
20260507182959 61 288 1.0 9.0 0.00 0.22 0.20 45 1008.4
20260507182458 61 290 2.0 12.0 0.00 0.22 0.20 41 1008.3
20260507181958 61 94 6.0 8.0 0.00 0.22 0.20 43 1008.4
20260507181458 60 85 4.0 9.0 0.00 0.22 0.20 46 1008.4
20260507180958 60 292 3.0 10.0 0.00 0.22 0.20 42 1008.4
20260507180458 60 272 1.0 11.0 0.00 0.22 0.20 43 1008.6
20260507175958 60 63 2.0 11.0 0.00 0.24 0.20 48 1008.7
20260507175458 60 311 3.0 9.0 0.00 0.24 0.20 44 1008.6
20260507174958 60 273 2.0 10.0 0.00 0.24 0.20 45 1008.7
20260507174458 60 74 4.0 12.0 0.00 0.24 0.20 46 1008.8
20260507173959 60 302 1.0 12.0 0.00 0.24 0.20 45 1008.8
20260507173458 59 290 2.0 10.0 0.00 0.24 0.20 43 1008.8
20260507172957 60 64 4.0 10.0 0.00 0.24 0.20 42 1008.9
20260507171959 60 226 1.0 9.0 0.00 0.24 0.20 46 1009.1
20260507171501 59 294 0.0 9.0 0.00 0.24 0.20 49 1009.2
20260507170958 59 69 0.0 9.0 0.00 0.24 0.20 43 1009.3
20260507170458 59 117 4.0 12.0 0.00 0.24 0.20 57 1009.3
20260507165958 58 69 1.0 12.0 0.00 0.24 0.20 50 1009.4
20260507165459 59 274 3.0 12.0 0.00 0.24 0.20 47 1009.4
20260507164958 58 317 2.0 12.0 0.00 0.24 0.20 45 1009.5
20260507163458 58 215 4.0 10.0 0.00 0.24 0.20 49 1009.6
20260507162958 57 121 2.0 10.0 0.00 0.24 0.20 44 1009.6
20260507162458 58 34 4.0 7.0 0.00 0.24 0.20 47 1009.7
20260507161458 58 314 1.0 9.0 0.00 0.24 0.20 54 1009.8
20260507160959 57 97 0.0 10.0 0.00 0.24 0.20 59 1009.9
20260507160459 57 34 3.0 9.0 0.00 0.24 0.20 51 1010.0
20260507155958 58 329 2.0 9.0 0.00 0.24 0.20 48 1009.9
20260507155458 58 259 3.0 5.0 0.00 0.24 0.20 57 1010.0
20260507154958 57 74 0.0 11.0 0.00 0.24 0.20 51 1010.0
20260507154458 56 311 3.0 11.0 0.00 0.24 0.20 51 1010.1
20260507153459 55 38 2.0 10.0 0.00 0.24 0.20 49 1010.4
20260507152958 56 77 7.0 10.0 0.00 0.24 0.20 50 1010.4
20260507151958 56 44 2.0 8.0 0.00 0.24 0.20 52 1010.4
20260507151457 56 43 2.0 10.0 0.00 0.24 0.20 51 1010.5
20260507150958 55 5 3.0 10.0 0.00 0.24 0.20 56 1010.4
20260507150458 55 52 5.0 11.0 0.00 0.24 0.20 54 1010.5
20260507145959 55 287 3.0 12.0 0.00 0.24 0.20 58 1010.4
20260507145458 55 50 5.0 12.0 0.00 0.24 0.20 50 1010.3
20260507144458 55 107 2.0 9.0 0.00 0.24 0.20 61 1010.3
20260507143957 55 317 4.0 9.0 0.00 0.24 0.20 57 1010.4
20260507143501 54 134 2.0 7.0 0.00 0.24 0.20 58 1010.3
20260507143000 54 298 3.0 5.0 0.00 0.24 0.20 59 1010.5
20260507142458 53 114 6.0 7.0 0.00 0.24 0.20 61 1010.5
20260507141958 53 289 4.0 10.0 0.00 0.24 0.20 57 1010.4
20260507141458 53 307 1.0 11.0 0.00 0.24 0.20 64 1010.4
20260507140457 52 286 3.0 10.0 0.00 0.24 0.20 61 1010.7
20260507135959 52 81 5.0 9.0 0.00 0.24 0.20 60 1010.6